QPF
0.00 0.00 0.00 0.00 0.00 0.00 0.00 0.00 0.00 0.00 0.00 0.00 0.00 0.00 0.01 0.01 0.01 0.01 0.00 0.00 0.01 0.03 0.04 0.05 0.06 0.04 0.03 0.03 0.03 0.03 0.03 0.03 0.02 0.03 0.03 0.03 0.04 0.04 0.05 0.06 0.06 0.06 0.06 0.07 0.07 0.06 0.06 0.05 0.05
0.00 0.00 0.00 0.00 0.00 0.00 0.00 0.00 0.00 0.00 0.00 0.00 0.00 0.00 0.01 0.00 0.00 0.00 0.00 0.01 0.02 0.02 0.03 0.04 0.03 0.03 0.02 0.02 0.03 0.03 0.02 0.02 0.02 0.02 0.03 0.04 0.04 0.04 0.04 0.06 0.06 0.07 0.06 0.07 0.07 0.07 0.06 0.07 0.07
0.00 0.00 0.00 0.00 0.00 0.00 0.00 0.00 0.00 0.00 0.00 0.00 0.00 0.00 0.00 0.00 0.00 0.00 0.00 0.00 0.01 0.02 0.02 0.03 0.03 0.03 0.04 0.03 0.03 0.03 0.03 0.02 0.02 0.02 0.03 0.04 0.04 0.05 0.05 0.06 0.06 0.06 0.07 0.06 0.05 0.05 0.05 0.07 0.07
0.00 0.00 0.00 0.00 0.00 0.00 0.00 0.00 0.00 0.00 0.00 0.00 0.00 0.00 0.00 0.00 0.00 0.00 0.00 0.00 0.00 0.01 0.02 0.02 0.03 0.03 0.03 0.04 0.03 0.02 0.03 0.03 0.03 0.03 0.03 0.05 0.06 0.06 0.07 0.07 0.07 0.06 0.05 0.06 0.04 0.05 0.05 0.06 0.06
0.00 0.00 0.00 0.00 0.00 0.00 0.00 0.00 0.00 0.00 0.00 0.00 0.00 0.00 0.00 0.01 0.01 0.00 0.00 0.00 0.00 0.00 0.02 0.03 0.03 0.03 0.03 0.04 0.03 0.04 0.04 0.03 0.03 0.03 0.04 0.06 0.08 0.07 0.06 0.06 0.06 0.05 0.05 0.05 0.06 0.06 0.06 0.07 0.06
0.00 0.00 0.00 0.00 0.00 0.00 0.00 0.00 0.00 0.00 0.00 0.00 0.00 0.00 0.00 0.01 0.01 0.00 0.00 0.01 0.01 0.01 0.01 0.03 0.04 0.05 0.05 0.05 0.04 0.06 0.06 0.04 0.03 0.04 0.05 0.05 0.07 0.06 0.05 0.05 0.04 0.04 0.05 0.06 0.07 0.07 0.08 0.09 0.06
0.00 0.00 0.00 0.00 0.00 0.00 0.00 0.00 0.00 0.00 0.00 0.00 0.00 0.00 0.00 0.01 0.01 0.00 0.00 0.00 0.01 0.01 0.01 0.02 0.04 0.05 0.05 0.05 0.05 0.05 0.05 0.04 0.04 0.04 0.06 0.06 0.07 0.04 0.05 0.05 0.04 0.04 0.04 0.04 0.06 0.06 0.08 0.07 0.05
0.00 0.00 0.00 0.00 0.00 0.00 0.00 0.00 0.00 0.00 0.00 0.00 0.00 0.00 0.00 0.00 0.00 0.00 0.00 0.00 0.01 0.01 0.02 0.02 0.02 0.03 0.04 0.05 0.05 0.04 0.03 0.03 0.05 0.04 0.05 0.06 0.06 0.03 0.03 0.04 0.04 0.03 0.03 0.03 0.06 0.06 0.06 0.05 0.05
0.00 0.00 0.00 0.00 0.00 0.00 0.00 0.00 0.00 0.00 0.00 0.00 0.00 0.00 0.00 0.00 0.00 0.00 0.00 0.00 0.01 0.01 0.02 0.03 0.01 0.02 0.02 0.03 0.03 0.04 0.03 0.03 0.05 0.05 0.04 0.05 0.06 0.03 0.02 0.02 0.04 0.03 0.03 0.04 0.06 0.07 0.06 0.04 0.05
0.00 0.00 0.00 0.00 0.00 0.00 0.00 0.00 0.00 0.00 0.00 0.00 0.00 0.00 0.00 0.00 0.00 0.00 0.00 0.00 0.00 0.01 0.02 0.02 0.02 0.02 0.01 0.02 0.05 0.07 0.04 0.04 0.05 0.06 0.04 0.04 0.03 0.03 0.02 0.02 0.04 0.04 0.03 0.04 0.05 0.05 0.03 0.03 0.03
0.00 0.00 0.00 0.00 0.00 0.00 0.00 0.00 0.00 0.00 0.00 0.00 0.00 0.00 0.00 0.00 0.00 0.00 0.00 0.00 0.00 0.01 0.01 0.02 0.02 0.03 0.03 0.04 0.05 0.06 0.05 0.05 0.05 0.04 0.03 0.03 0.01 0.01 0.02 0.04 0.04 0.04 0.04 0.05 0.05 0.03 0.02 0.01 0.03
0.00 0.00 0.00 0.00 0.00 0.00 0.00 0.00 0.00 0.00 0.00 0.00 0.00 0.01 0.01 0.00 0.00 0.00 0.00 0.00 0.01 0.01 0.02 0.01 0.02 0.02 0.03 0.04 0.04 0.03 0.02 0.02 0.03 0.02 0.01 0.02 0.02 0.02 0.01 0.03 0.03 0.04 0.05 0.05 0.04 0.04 0.02 0.01 0.02
0.00 0.00 0.00 0.00 0.00 0.00 0.00 0.00 0.00 0.00 0.00 0.00 0.00 0.01 0.01 0.01 0.00 0.00 0.00 0.01 0.01 0.01 0.03 0.02 0.01 0.02 0.02 0.04 0.04 0.02 0.03 0.02 0.02 0.02 0.01 0.01 0.01 0.02 0.01 0.01 0.02 0.02 0.02 0.02 0.03 0.03 0.02 0.02 0.01
0.00 0.00 0.00 0.00 0.00 0.00 0.00 0.00 0.00 0.00 0.00 0.00 0.00 0.00 0.01 0.00 0.00 0.00 0.00 0.01 0.01 0.01 0.02 0.01 0.01 0.01 0.02 0.04 0.05 0.04 0.03 0.03 0.03 0.02 0.02 0.02 0.02 0.02 0.02 0.02 0.03 0.02 0.02 0.02 0.03 0.03 0.03 0.02 0.02
0.00 0.00 0.00 0.00 0.00 0.00 0.00 0.00 0.00 0.00 0.00 0.00 0.00 0.00 0.00 0.00 0.00 0.00 0.01 0.01 0.01 0.02 0.02 0.02 0.01 0.01 0.02 0.04 0.06 0.04 0.02 0.03 0.04 0.05 0.04 0.03 0.02 0.03 0.02 0.03 0.04 0.03 0.03 0.03 0.04 0.04 0.04 0.04 0.03
0.00 0.00 0.00 0.00 0.00 0.00 0.00 0.00 0.00 0.00 0.00 0.00 0.00 0.00 0.00 0.00 0.00 0.00 0.00 0.01 0.01 0.02 0.03 0.03 0.02 0.01 0.01 0.03 0.06 0.05 0.04 0.06 0.06 0.07 0.06 0.05 0.04 0.04 0.05 0.05 0.05 0.04 0.03 0.04 0.05 0.05 0.05 0.06 0.06
0.00 0.00 0.00 0.00 0.00 0.00 0.00 0.00 0.00 0.00 0.00 0.00 0.00 0.00 0.00 0.00 0.00 0.00 0.01 0.01 0.02 0.03 0.04 0.04 0.02 0.02 0.01 0.04 0.08 0.08 0.08 0.09 0.08 0.07 0.08 0.09 0.08 0.06 0.05 0.05 0.06 0.04 0.05 0.05 0.04 0.05 0.07 0.08 0.09
0.00 0.00 0.00 0.00 0.00 0.00 0.00 0.00 0.00 0.00 0.00 0.00 0.00 0.00 0.00 0.00 0.00 0.00 0.01 0.01 0.03 0.04 0.03 0.03 0.04 0.05 0.03 0.04 0.08 0.08 0.09 0.10 0.11 0.10 0.09 0.11 0.13 0.10 0.08 0.06 0.07 0.06 0.06 0.07 0.07 0.10 0.10 0.10 0.11
0.00 0.00 0.00 0.00 0.00 0.00 0.00 0.00 0.00 0.00 0.00 0.00 0.00 0.00 0.00 0.00 0.00 0.00 0.00 0.01 0.02 0.02 0.04 0.04 0.05 0.06 0.04 0.05 0.08 0.08 0.11 0.11 0.10 0.09 0.08 0.08 0.08 0.11 0.12 0.09 0.10 0.09 0.09 0.10 0.08 0.09 0.10 0.11 0.10
0.00 0.00 0.00 0.00 0.00 0.00 0.00 0.00 0.00 0.00 0.00 0.00 0.00 0.00 0.00 0.01 0.00 0.00 0.01 0.01 0.01 0.01 0.04 0.04 0.05 0.05 0.05 0.08 0.13 0.09 0.10 0.09 0.10 0.10 0.11 0.09 0.07 0.09 0.08 0.10 0.10 0.11 0.11 0.10 0.09 0.09 0.08 0.09 0.09
0.00 0.00 0.00 0.00 0.00 0.00 0.00 0.00 0.00 0.00 0.00 0.00 0.00 0.01 0.01 0.01 0.01 0.01 0.01 0.01 0.01 0.01 0.02 0.03 0.05 0.06 0.07 0.08 0.11 0.10 0.10 0.08 0.10 0.12 0.10 0.08 0.06 0.07 0.08 0.08 0.10 0.11 0.08 0.09 0.11 0.10 0.08 0.09 0.08
0.00 0.00 0.00 0.00 0.00 0.00 0.00 0.00 0.00 0.00 0.00 0.00 0.00 0.00 0.00 0.00 0.00 0.01 0.02 0.01 0.02 0.03 0.02 0.03 0.04 0.07 0.07 0.09 0.09 0.11 0.11 0.09 0.13 0.14 0.11 0.11 0.09 0.07 0.08 0.08 0.08 0.08 0.07 0.09 0.08 0.08 0.08 0.09 0.09
0.00 0.00 0.00 0.00 0.00 0.00 0.00 0.00 0.00 0.00 0.00 0.00 0.00 0.00 0.00 0.00 0.01 0.01 0.01 0.02 0.02 0.03 0.03 0.02 0.04 0.05 0.05 0.05 0.06 0.09 0.09 0.08 0.11 0.18 0.13 0.13 0.13 0.10 0.09 0.09 0.09 0.09 0.08 0.08 0.07 0.09 0.09 0.07 0.08
0.00 0.00 0.00 0.00 0.00 0.00 0.00 0.00 0.00 0.00 0.00 0.00 0.00 0.00 0.00 0.00 0.01 0.01 0.01 0.01 0.02 0.04 0.05 0.03 0.04 0.04 0.03 0.04 0.05 0.06 0.06 0.07 0.07 0.09 0.08 0.07 0.07 0.08 0.08 0.08 0.08 0.07 0.07 0.08 0.08 0.08 0.08 0.08 0.09
0.00 0.00 0.00 0.00 0.00 0.00 0.00 0.00 0.00 0.00 0.00 0.00 0.00 0.00 0.00 0.00 0.00 0.00 0.00 0.01 0.01 0.01 0.02 0.02 0.02 0.02 0.03 0.04 0.05 0.05 0.05 0.05 0.06 0.06 0.04 0.04 0.04 0.05 0.07 0.06 0.08 0.06 0.06 0.07 0.07 0.08 0.09 0.10 0.10
0.00 0.00 0.00 0.00 0.00 0.00 0.00 0.00 0.00 0.00 0.00 0.00 0.00 0.00 0.00 0.00 0.00 0.00 0.00 0.00 0.00 0.00 0.01 0.01 0.01 0.02 0.02 0.03 0.03 0.04 0.04 0.04 0.04 0.05 0.04 0.03 0.04 0.04 0.04 0.05 0.06 0.05 0.05 0.05 0.06 0.07 0.07 0.07 0.08
0.00 0.00 0.00 0.00 0.00 0.00 0.00 0.00 0.00 0.00 0.00 0.00 0.00 0.00 0.00 0.00 0.00 0.00 0.00 0.00 0.00 0.00 0.00 0.00 0.01 0.02 0.02 0.03 0.03 0.05 0.05 0.04 0.04 0.05 0.05 0.03 0.04 0.03 0.03 0.04 0.05 0.04 0.05 0.06 0.06 0.06 0.06 0.07 0.07
0.00 0.00 0.00 0.00 0.00 0.00 0.00 0.00 0.00 0.00 0.00 0.00 0.00 0.00 0.00 0.00 0.00 0.00 0.00 0.00 0.01 0.00 0.00 0.00 0.01 0.01 0.02 0.03 0.04 0.05 0.07 0.06 0.05 0.06 0.06 0.04 0.04 0.03 0.04 0.05 0.05 0.04 0.05 0.04 0.04 0.05 0.06 0.05 0.06
0.00 0.00 0.00 0.00 0.00 0.00 0.00 0.00 0.00 0.00 0.00 0.00 0.00 0.00 0.00 0.00 0.00 0.00 0.00 0.02 0.01 0.00 0.00 0.01 0.01 0.02 0.02 0.03 0.03 0.04 0.06 0.06 0.05 0.05 0.07 0.05 0.03 0.03 0.04 0.04 0.04 0.03 0.04 0.04 0.04 0.05 0.05 0.05 0.05
0.00 0.00 0.00 0.00 0.00 0.00 0.00 0.00 0.00 0.00 0.00 0.00 0.00 0.00 0.00 0.00 0.00 0.00 0.00 0.02 0.02 0.01 0.00 0.01 0.02 0.02 0.03 0.03 0.03 0.04 0.06 0.04 0.03 0.03 0.04 0.03 0.03 0.02 0.03 0.04 0.05 0.04 0.04 0.05 0.05 0.05 0.05 0.05 0.04
MSLP
1008.25 1008.85 1009.59 1010.39 1011.14 1011.77 1012.22 1012.49 1012.60 1012.61 1012.59 1012.59 1012.65 1012.77 1012.91 1013.05 1013.13 1013.16 1013.15 1013.14 1013.18 1013.33 1013.61 1014.02 1014.53 1015.07 1015.55 1015.92 1016.15 1016.21 1016.17 1016.07 1015.97 1015.95 1016.01 1016.16 1016.36 1016.58 1016.76 1016.89 1016.96 1016.99 1017.03 1017.09 1017.20 1017.37 1017.58 1017.80 1018.00
1008.37 1009.08 1009.94 1010.82 1011.63 1012.27 1012.69 1012.89 1012.91 1012.82 1012.68 1012.58 1012.54 1012.58 1012.67 1012.76 1012.85 1012.89 1012.92 1012.97 1013.08 1013.31 1013.67 1014.15 1014.72 1015.29 1015.80 1016.17 1016.39 1016.45 1016.39 1016.27 1016.17 1016.13 1016.18 1016.31 1016.49 1016.69 1016.86 1016.98 1017.06 1017.11 1017.18 1017.29 1017.45 1017.67 1017.91 1018.15 1018.35
1008.56 1009.36 1010.28 1011.19 1012.00 1012.61 1012.99 1013.12 1013.07 1012.91 1012.71 1012.56 1012.48 1012.49 1012.56 1012.65 1012.74 1012.80 1012.86 1012.94 1013.09 1013.36 1013.76 1014.28 1014.87 1015.46 1015.98 1016.36 1016.58 1016.64 1016.58 1016.47 1016.37 1016.33 1016.38 1016.49 1016.66 1016.83 1016.99 1017.10 1017.19 1017.27 1017.38 1017.54 1017.76 1018.02 1018.29 1018.54 1018.73
1008.82 1009.66 1010.59 1011.48 1012.24 1012.79 1013.10 1013.17 1013.08 1012.88 1012.68 1012.53 1012.47 1012.50 1012.59 1012.70 1012.80 1012.88 1012.95 1013.04 1013.20 1013.48 1013.88 1014.40 1014.99 1015.57 1016.08 1016.46 1016.69 1016.77 1016.73 1016.65 1016.57 1016.55 1016.60 1016.72 1016.87 1017.04 1017.18 1017.29 1017.39 1017.50 1017.65 1017.86 1018.13 1018.42 1018.72 1018.96 1019.11
1009.13 1009.96 1010.84 1011.66 1012.34 1012.80 1013.03 1013.06 1012.94 1012.76 1012.59 1012.50 1012.50 1012.59 1012.73 1012.89 1013.01 1013.09 1013.15 1013.23 1013.38 1013.63 1014.01 1014.50 1015.06 1015.62 1016.12 1016.49 1016.73 1016.82 1016.82 1016.78 1016.75 1016.76 1016.84 1016.97 1017.13 1017.29 1017.43 1017.55 1017.66 1017.80 1017.98 1018.23 1018.52 1018.84 1019.13 1019.35 1019.47
1009.44 1010.23 1011.02 1011.74 1012.29 1012.65 1012.81 1012.80 1012.68 1012.55 1012.46 1012.46 1012.56 1012.74 1012.95 1013.15 1013.30 1013.38 1013.43 1013.48 1013.59 1013.81 1014.14 1014.59 1015.11 1015.63 1016.10 1016.46 1016.70 1016.81 1016.85 1016.85 1016.86 1016.93 1017.05 1017.21 1017.39 1017.56 1017.71 1017.84 1017.97 1018.12 1018.33 1018.59 1018.90 1019.21 1019.49 1019.68 1019.75
1009.72 1010.42 1011.10 1011.69 1012.12 1012.37 1012.45 1012.42 1012.33 1012.27 1012.28 1012.40 1012.61 1012.89 1013.18 1013.43 1013.60 1013.69 1013.72 1013.75 1013.82 1013.99 1014.28 1014.68 1015.15 1015.63 1016.06 1016.40 1016.63 1016.75 1016.81 1016.86 1016.92 1017.04 1017.20 1017.41 1017.62 1017.82 1017.98 1018.12 1018.26 1018.42 1018.63 1018.89 1019.18 1019.48 1019.73 1019.88 1019.91
1009.95 1010.54 1011.08 1011.52 1011.82 1011.97 1012.00 1011.96 1011.91 1011.93 1012.05 1012.29 1012.62 1012.99 1013.36 1013.66 1013.85 1013.95 1013.97 1013.99 1014.04 1014.19 1014.44 1014.80 1015.23 1015.66 1016.05 1016.35 1016.56 1016.68 1016.75 1016.82 1016.93 1017.09 1017.30 1017.55 1017.80 1018.03 1018.21 1018.36 1018.50 1018.65 1018.85 1019.08 1019.35 1019.61 1019.83 1019.95 1019.95
1010.10 1010.57 1010.97 1011.26 1011.44 1011.50 1011.48 1011.44 1011.44 1011.54 1011.76 1012.11 1012.54 1013.01 1013.44 1013.79 1014.01 1014.13 1014.17 1014.18 1014.24 1014.38 1014.63 1014.97 1015.36 1015.75 1016.10 1016.36 1016.53 1016.62 1016.69 1016.76 1016.89 1017.08 1017.34 1017.63 1017.92 1018.17 1018.38 1018.54 1018.67 1018.81 1018.97 1019.17 1019.40 1019.62 1019.80 1019.89 1019.88
1010.18 1010.52 1010.79 1010.95 1011.01 1010.99 1010.93 1010.89 1010.93 1011.10 1011.41 1011.85 1012.37 1012.91 1013.40 1013.79 1014.06 1014.21 1014.28 1014.33 1014.41 1014.58 1014.84 1015.17 1015.55 1015.91 1016.22 1016.43 1016.55 1016.61 1016.64 1016.71 1016.84 1017.05 1017.33 1017.65 1017.98 1018.26 1018.49 1018.66 1018.78 1018.90 1019.03 1019.19 1019.37 1019.55 1019.69 1019.77 1019.76
1010.23 1010.46 1010.59 1010.63 1010.59 1010.49 1010.40 1010.35 1010.42 1010.64 1011.01 1011.52 1012.10 1012.70 1013.24 1013.68 1013.99 1014.19 1014.31 1014.42 1014.56 1014.77 1015.06 1015.42 1015.79 1016.13 1016.40 1016.56 1016.63 1016.64 1016.64 1016.67 1016.79 1017.00 1017.30 1017.65 1018.00 1018.32 1018.57 1018.74 1018.86 1018.96 1019.06 1019.17 1019.31 1019.46 1019.58 1019.64 1019.63
1010.30 1010.42 1010.45 1010.38 1010.24 1010.08 1009.94 1009.88 1009.95 1010.19 1010.60 1011.14 1011.76 1012.40 1012.98 1013.47 1013.83 1014.09 1014.28 1014.46 1014.66 1014.94 1015.28 1015.66 1016.04 1016.38 1016.61 1016.74 1016.76 1016.72 1016.67 1016.67 1016.77 1016.97 1017.27 1017.63 1018.01 1018.35 1018.62 1018.81 1018.94 1019.03 1019.10 1019.19 1019.29 1019.41 1019.51 1019.56 1019.57
1010.43 1010.48 1010.41 1010.25 1010.03 1009.79 1009.60 1009.51 1009.57 1009.81 1010.22 1010.77 1011.41 1012.07 1012.69 1013.21 1013.63 1013.95 1014.21 1014.46 1014.74 1015.07 1015.45 1015.87 1016.27 1016.60 1016.82 1016.92 1016.91 1016.83 1016.74 1016.71 1016.78 1016.96 1017.26 1017.62 1018.01 1018.38 1018.68 1018.89 1019.03 1019.12 1019.19 1019.26 1019.34 1019.44 1019.52 1019.57 1019.58
1010.69 1010.66 1010.52 1010.28 1009.99 1009.69 1009.44 1009.31 1009.33 1009.54 1009.93 1010.47 1011.10 1011.77 1012.41 1012.97 1013.43 1013.81 1014.13 1014.44 1014.77 1015.15 1015.57 1016.01 1016.42 1016.76 1016.97 1017.06 1017.04 1016.94 1016.83 1016.78 1016.82 1016.98 1017.26 1017.63 1018.03 1018.40 1018.73 1018.97 1019.13 1019.24 1019.32 1019.39 1019.47 1019.55 1019.63 1019.67 1019.66
1011.06 1010.99 1010.79 1010.50 1010.15 1009.79 1009.48 1009.29 1009.26 1009.42 1009.76 1010.27 1010.88 1011.54 1012.19 1012.77 1013.27 1013.69 1014.05 1014.40 1014.76 1015.17 1015.61 1016.06 1016.48 1016.82 1017.05 1017.15 1017.13 1017.04 1016.93 1016.87 1016.89 1017.04 1017.29 1017.64 1018.03 1018.42 1018.76 1019.02 1019.22 1019.35 1019.45 1019.54 1019.62 1019.71 1019.77 1019.81 1019.78
1011.52 1011.43 1011.20 1010.87 1010.48 1010.07 1009.71 1009.46 1009.37 1009.46 1009.75 1010.21 1010.78 1011.42 1012.06 1012.66 1013.18 1013.62 1014.00 1014.36 1014.73 1015.13 1015.56 1016.00 1016.42 1016.78 1017.03 1017.16 1017.18 1017.12 1017.04 1016.98 1016.99 1017.11 1017.34 1017.66 1018.02 1018.40 1018.74 1019.03 1019.25 1019.42 1019.55 1019.66 1019.76 1019.85 1019.91 1019.93 1019.89
1012.03 1011.92 1011.68 1011.34 1010.94 1010.51 1010.11 1009.80 1009.64 1009.67 1009.88 1010.27 1010.80 1011.41 1012.03 1012.62 1013.15 1013.59 1013.97 1014.32 1014.67 1015.04 1015.44 1015.86 1016.28 1016.64 1016.93 1017.11 1017.19 1017.19 1017.14 1017.10 1017.11 1017.21 1017.40 1017.67 1017.99 1018.34 1018.67 1018.96 1019.21 1019.40 1019.56 1019.70 1019.82 1019.91 1019.98 1019.99 1019.93
1012.49 1012.40 1012.18 1011.86 1011.47 1011.04 1010.62 1010.28 1010.05 1010.00 1010.13 1010.45 1010.91 1011.47 1012.06 1012.64 1013.16 1013.59 1013.96 1014.28 1014.59 1014.91 1015.27 1015.66 1016.06 1016.44 1016.77 1017.01 1017.17 1017.24 1017.25 1017.24 1017.26 1017.32 1017.46 1017.67 1017.94 1018.23 1018.53 1018.81 1019.06 1019.28 1019.46 1019.63 1019.76 1019.87 1019.94 1019.95 1019.88
1012.86 1012.79 1012.63 1012.37 1012.03 1011.63 1011.22 1010.84 1010.56 1010.42 1010.47 1010.69 1011.08 1011.57 1012.13 1012.68 1013.18 1013.60 1013.94 1014.23 1014.49 1014.76 1015.07 1015.42 1015.80 1016.20 1016.57 1016.88 1017.12 1017.27 1017.34 1017.38 1017.40 1017.44 1017.52 1017.66 1017.85 1018.08 1018.33 1018.58 1018.82 1019.05 1019.25 1019.44 1019.59 1019.71 1019.79 1019.80 1019.74
1013.09 1013.08 1013.00 1012.84 1012.58 1012.24 1011.84 1011.45 1011.12 1010.90 1010.85 1010.97 1011.26 1011.68 1012.18 1012.70 1013.18 1013.58 1013.90 1014.16 1014.38 1014.60 1014.85 1015.16 1015.53 1015.94 1016.34 1016.72 1017.04 1017.27 1017.42 1017.49 1017.52 1017.54 1017.57 1017.63 1017.74 1017.89 1018.08 1018.30 1018.52 1018.74 1018.95 1019.15 1019.32 1019.45 1019.53 1019.56 1019.51
1013.18 1013.26 1013.29 1013.25 1013.10 1012.84 1012.49 1012.09 1011.71 1011.40 1011.24 1011.24 1011.43 1011.76 1012.19 1012.67 1013.13 1013.52 1013.83 1014.06 1014.25 1014.42 1014.63 1014.90 1015.25 1015.66 1016.09 1016.53 1016.91 1017.22 1017.43 1017.55 1017.59 1017.59 1017.58 1017.58 1017.61 1017.69 1017.82 1017.99 1018.18 1018.39 1018.60 1018.80 1018.97 1019.11 1019.20 1019.24 1019.22
1013.17 1013.36 1013.53 1013.62 1013.60 1013.44 1013.14 1012.74 1012.30 1011.91 1011.62 1011.50 1011.57 1011.80 1012.16 1012.59 1013.02 1013.41 1013.71 1013.93 1014.10 1014.24 1014.41 1014.65 1014.97 1015.37 1015.82 1016.29 1016.73 1017.09 1017.36 1017.53 1017.59 1017.58 1017.53 1017.48 1017.46 1017.48 1017.55 1017.68 1017.85 1018.04 1018.23 1018.43 1018.59 1018.73 1018.83 1018.88 1018.88
1013.12 1013.43 1013.74 1013.98 1014.09 1014.03 1013.78 1013.38 1012.89 1012.40 1012.00 1011.74 1011.68 1011.80 1012.08 1012.46 1012.87 1013.25 1013.55 1013.77 1013.93 1014.05 1014.20 1014.39 1014.68 1015.06 1015.51 1016.00 1016.47 1016.88 1017.20 1017.40 1017.49 1017.49 1017.43 1017.35 1017.29 1017.27 1017.31 1017.40 1017.54 1017.71 1017.89 1018.07 1018.22 1018.35 1018.44 1018.49 1018.51
1013.08 1013.51 1013.95 1014.33 1014.56 1014.59 1014.38 1013.98 1013.44 1012.87 1012.34 1011.96 1011.77 1011.79 1011.98 1012.31 1012.69 1013.06 1013.37 1013.60 1013.75 1013.86 1013.98 1014.15 1014.40 1014.75 1015.19 1015.67 1016.16 1016.60 1016.96 1017.19 1017.31 1017.33 1017.28 1017.20 1017.12 1017.08 1017.10 1017.17 1017.29 1017.44 1017.60 1017.76 1017.89 1017.99 1018.06 1018.11 1018.13
1013.08 1013.61 1014.16 1014.65 1014.98 1015.07 1014.91 1014.50 1013.93 1013.28 1012.66 1012.16 1011.86 1011.77 1011.89 1012.15 1012.50 1012.86 1013.17 1013.41 1013.57 1013.67 1013.77 1013.91 1014.14 1014.45 1014.86 1015.34 1015.83 1016.28 1016.66 1016.93 1017.09 1017.13 1017.10 1017.04 1016.97 1016.93 1016.94 1017.01 1017.12 1017.25 1017.39 1017.51 1017.61 1017.68 1017.72 1017.74 1017.76
1013.12 1013.71 1014.34 1014.90 1015.28 1015.43 1015.30 1014.90 1014.31 1013.61 1012.92 1012.34 1011.95 1011.78 1011.82 1012.03 1012.34 1012.68 1012.99 1013.23 1013.39 1013.50 1013.59 1013.71 1013.91 1014.20 1014.58 1015.03 1015.52 1015.98 1016.38 1016.67 1016.86 1016.94 1016.95 1016.91 1016.86 1016.84 1016.86 1016.93 1017.03 1017.15 1017.27 1017.37 1017.43 1017.45 1017.45 1017.44 1017.43
1013.16 1013.77 1014.42 1015.00 1015.42 1015.60 1015.50 1015.13 1014.54 1013.83 1013.12 1012.50 1012.06 1011.82 1011.80 1011.96 1012.23 1012.54 1012.84 1013.07 1013.24 1013.35 1013.44 1013.55 1013.73 1014.00 1014.37 1014.81 1015.28 1015.74 1016.15 1016.47 1016.69 1016.81 1016.85 1016.84 1016.83 1016.83 1016.87 1016.95 1017.06 1017.17 1017.27 1017.34 1017.36 1017.34 1017.29 1017.24 1017.19
1013.17 1013.75 1014.37 1014.94 1015.36 1015.55 1015.48 1015.16 1014.62 1013.95 1013.26 1012.65 1012.18 1011.92 1011.85 1011.96 1012.19 1012.46 1012.73 1012.96 1013.12 1013.23 1013.33 1013.45 1013.63 1013.90 1014.25 1014.68 1015.15 1015.62 1016.03 1016.37 1016.61 1016.76 1016.83 1016.86 1016.88 1016.91 1016.97 1017.07 1017.18 1017.30 1017.39 1017.44 1017.43 1017.38 1017.29 1017.18 1017.09
1013.10 1013.61 1014.16 1014.69 1015.08 1015.29 1015.27 1015.01 1014.55 1013.97 1013.36 1012.80 1012.36 1012.09 1012.00 1012.06 1012.24 1012.47 1012.70 1012.90 1013.05 1013.16 1013.27 1013.40 1013.60 1013.87 1014.23 1014.66 1015.13 1015.60 1016.02 1016.37 1016.62 1016.79 1016.89 1016.95 1016.99 1017.05 1017.14 1017.26 1017.40 1017.53 1017.62 1017.67 1017.65 1017.57 1017.44 1017.29 1017.16
1012.96 1013.36 1013.83 1014.29 1014.66 1014.87 1014.91 1014.74 1014.41 1013.95 1013.45 1012.98 1012.61 1012.36 1012.26 1012.28 1012.40 1012.57 1012.75 1012.90 1013.03 1013.14 1013.25 1013.40 1013.61 1013.90 1014.27 1014.71 1015.18 1015.64 1016.06 1016.41 1016.67 1016.86 1016.97 1017.05 1017.13 1017.22 1017.33 1017.48 1017.64 1017.79 1017.91 1017.97 1017.95 1017.87 1017.73 1017.56 1017.39
Thickness
5847 5853 5855 5849 5837 5815 5797 5801 5809 5804 5801 5807 5806 5801 5793 5786 5780 5766 5783 5790 5786 5782 5774 5767 5763 5762 5761 5760 5759 5758 5757 5756 5756 5755 5755 5755 5755 5755 5754 5754 5753 5753 5752 5752 5751 5751 5749 5748 5748
5858 5857 5853 5849 5826 5797 5791 5805 5804 5802 5806 5809 5805 5801 5794 5785 5787 5783 5786 5786 5785 5782 5776 5769 5762 5760 5759 5758 5757 5756 5755 5755 5754 5754 5753 5753 5753 5753 5752 5752 5751 5751 5750 5750 5749 5748 5747 5746 5746
5861 5860 5852 5841 5817 5799 5794 5807 5806 5809 5813 5808 5800 5800 5793 5783 5785 5786 5788 5788 5786 5781 5775 5766 5761 5759 5757 5756 5755 5755 5754 5753 5753 5752 5752 5751 5751 5751 5750 5750 5749 5749 5748 5748 5747 5746 5745 5744 5744
5863 5859 5854 5833 5809 5811 5811 5812 5813 5809 5809 5810 5804 5793 5792 5792 5792 5792 5791 5789 5786 5780 5775 5765 5760 5758 5756 5755 5754 5753 5752 5751 5751 5750 5750 5750 5749 5748 5748 5748 5747 5746 5746 5745 5745 5744 5743 5743 5742
5868 5857 5838 5820 5813 5818 5823 5822 5819 5811 5806 5807 5805 5791 5784 5792 5798 5795 5791 5789 5785 5781 5776 5766 5759 5756 5755 5754 5753 5752 5751 5750 5750 5749 5748 5748 5747 5746 5746 5745 5745 5745 5744 5744 5743 5743 5742 5741 5740
5861 5857 5830 5813 5812 5820 5825 5827 5822 5813 5808 5807 5804 5793 5784 5793 5793 5792 5791 5788 5786 5781 5776 5765 5758 5755 5753 5752 5751 5750 5749 5749 5748 5748 5747 5746 5745 5745 5744 5744 5743 5743 5742 5742 5742 5741 5741 5740 5739
5855 5847 5828 5823 5818 5818 5824 5831 5824 5816 5808 5808 5809 5794 5787 5791 5794 5794 5790 5787 5784 5780 5776 5768 5762 5756 5753 5751 5750 5749 5748 5748 5747 5746 5746 5745 5744 5743 5743 5742 5741 5741 5741 5740 5740 5740 5739 5739 5738
5866 5853 5833 5828 5821 5819 5831 5832 5829 5823 5813 5818 5815 5798 5789 5792 5795 5793 5788 5783 5780 5777 5775 5768 5765 5760 5757 5753 5749 5748 5747 5746 5745 5745 5744 5744 5743 5742 5742 5741 5740 5740 5739 5739 5739 5738 5738 5738 5737
5868 5848 5830 5829 5824 5826 5836 5830 5829 5833 5822 5817 5816 5813 5809 5801 5796 5789 5783 5778 5774 5772 5772 5769 5766 5761 5759 5756 5751 5748 5747 5745 5745 5744 5743 5744 5746 5745 5743 5741 5739 5739 5738 5738 5738 5737 5737 5737 5737
5862 5842 5834 5841 5842 5838 5837 5833 5830 5825 5816 5811 5808 5808 5806 5799 5793 5787 5782 5776 5773 5769 5769 5767 5765 5761 5759 5757 5752 5750 5750 5747 5747 5746 5745 5745 5745 5745 5744 5739 5739 5738 5738 5737 5737 5737 5737 5739 5740
5857 5844 5846 5849 5851 5848 5840 5837 5838 5828 5817 5817 5810 5804 5802 5798 5793 5790 5785 5782 5778 5773 5769 5767 5763 5760 5758 5755 5753 5751 5750 5747 5747 5745 5744 5744 5745 5745 5744 5742 5741 5740 5739 5740 5738 5739 5741 5742 5741
5851 5850 5851 5852 5854 5849 5844 5841 5836 5832 5829 5833 5826 5816 5806 5800 5796 5792 5788 5784 5780 5774 5769 5767 5763 5759 5756 5755 5753 5751 5750 5749 5748 5744 5744 5744 5745 5745 5745 5743 5743 5742 5741 5740 5741 5740 5740 5740 5740
5848 5847 5853 5857 5856 5853 5848 5842 5837 5833 5838 5837 5829 5817 5809 5805 5800 5797 5792 5786 5780 5774 5771 5768 5763 5758 5755 5753 5753 5753 5750 5750 5748 5745 5744 5744 5745 5744 5744 5743 5742 5744 5742 5741 5740 5740 5739 5739 5739
5849 5851 5853 5856 5855 5852 5844 5841 5837 5833 5839 5831 5824 5817 5813 5808 5804 5797 5791 5785 5781 5776 5772 5769 5764 5759 5755 5753 5752 5751 5751 5748 5748 5746 5744 5743 5744 5744 5743 5742 5741 5742 5741 5741 5740 5740 5739 5740 5740
5855 5848 5848 5851 5851 5851 5847 5832 5834 5839 5838 5828 5823 5819 5814 5810 5806 5799 5794 5789 5784 5779 5775 5769 5765 5761 5757 5755 5753 5752 5751 5750 5748 5746 5744 5743 5744 5742 5742 5743 5741 5741 5740 5739 5739 5739 5740 5740 5740
5851 5843 5834 5842 5848 5849 5839 5824 5837 5844 5837 5828 5824 5819 5814 5810 5808 5804 5799 5793 5788 5782 5776 5771 5769 5764 5759 5756 5753 5753 5752 5750 5748 5746 5745 5743 5742 5742 5741 5742 5742 5740 5740 5740 5740 5741 5740 5740 5740
5838 5831 5830 5835 5846 5846 5839 5829 5837 5844 5838 5829 5825 5821 5815 5809 5808 5806 5803 5797 5791 5785 5779 5772 5770 5765 5761 5757 5753 5752 5750 5749 5748 5746 5745 5743 5742 5742 5742 5742 5741 5740 5740 5741 5742 5742 5740 5739 5739
5825 5829 5827 5829 5841 5842 5836 5834 5839 5842 5839 5832 5828 5823 5817 5812 5810 5809 5805 5799 5793 5788 5782 5775 5771 5766 5762 5758 5754 5752 5751 5749 5748 5748 5746 5744 5743 5743 5743 5742 5741 5741 5741 5740 5740 5739 5738 5738 5739
5832 5828 5826 5830 5841 5838 5834 5834 5837 5841 5838 5832 5828 5825 5820 5817 5817 5813 5807 5802 5796 5790 5784 5778 5773 5769 5764 5760 5757 5754 5752 5752 5751 5749 5747 5746 5745 5744 5743 5745 5742 5742 5742 5740 5740 5739 5738 5738 5740
5828 5824 5825 5829 5837 5835 5832 5833 5840 5840 5837 5836 5831 5826 5823 5819 5816 5811 5807 5803 5798 5792 5786 5780 5775 5772 5767 5764 5761 5758 5755 5754 5754 5752 5749 5747 5746 5745 5745 5744 5744 5743 5741 5740 5739 5738 5738 5739 5740
5823 5824 5825 5823 5829 5835 5829 5825 5831 5837 5839 5837 5835 5833 5829 5823 5817 5812 5807 5804 5800 5794 5789 5784 5779 5775 5770 5767 5762 5759 5755 5754 5753 5752 5750 5749 5748 5746 5745 5745 5744 5743 5743 5741 5739 5739 5737 5736 5739
5815 5830 5827 5823 5820 5822 5822 5814 5826 5834 5831 5832 5833 5832 5829 5826 5822 5815 5810 5805 5801 5797 5793 5787 5781 5777 5772 5768 5764 5760 5755 5752 5753 5753 5752 5750 5748 5747 5746 5745 5744 5743 5743 5742 5741 5742 5740 5737 5735
5824 5831 5827 5824 5821 5817 5820 5813 5827 5833 5825 5830 5833 5832 5831 5828 5824 5818 5813 5808 5804 5800 5795 5789 5783 5777 5774 5770 5766 5760 5758 5757 5756 5754 5752 5750 5749 5747 5747 5745 5744 5743 5743 5742 5741 5740 5739 5739 5737
5825 5822 5818 5820 5821 5799 5810 5806 5814 5830 5828 5832 5834 5832 5830 5828 5824 5819 5815 5810 5804 5801 5796 5790 5783 5777 5774 5770 5767 5762 5759 5757 5754 5752 5751 5751 5750 5749 5748 5746 5744 5743 5743 5742 5741 5740 5739 5738 5737
5819 5808 5794 5791 5794 5799 5811 5805 5816 5833 5836 5835 5833 5831 5829 5827 5823 5817 5813 5808 5803 5799 5794 5790 5783 5776 5774 5771 5767 5763 5760 5757 5754 5752 5751 5750 5751 5750 5747 5747 5744 5743 5742 5742 5741 5739 5739 5737 5736
5814 5815 5793 5782 5789 5802 5802 5803 5824 5837 5838 5839 5838 5835 5830 5826 5824 5818 5814 5809 5803 5799 5794 5789 5782 5776 5774 5771 5767 5764 5761 5759 5757 5754 5753 5751 5751 5751 5749 5746 5744 5743 5742 5741 5740 5740 5739 5737 5736
5808 5811 5826 5807 5798 5793 5804 5812 5826 5834 5833 5834 5834 5831 5827 5825 5822 5817 5813 5809 5804 5798 5793 5789 5782 5778 5774 5771 5767 5764 5761 5759 5757 5754 5752 5752 5750 5750 5747 5746 5744 5742 5741 5740 5739 5738 5737 5736 5735
5817 5819 5808 5800 5779 5777 5792 5800 5812 5821 5824 5828 5828 5827 5826 5824 5820 5816 5812 5808 5805 5800 5794 5789 5784 5779 5774 5771 5767 5764 5761 5758 5755 5753 5751 5750 5749 5747 5746 5744 5743 5741 5740 5739 5737 5736 5735 5733 5732
5799 5801 5805 5804 5801 5784 5782 5801 5830 5827 5829 5828 5829 5828 5826 5822 5819 5815 5811 5808 5804 5800 5794 5788 5783 5778 5773 5769 5765 5762 5759 5757 5754 5751 5749 5748 5746 5744 5743 5742 5741 5739 5738 5737 5735 5733 5732 5730 5728
5809 5807 5802 5788 5783 5791 5793 5804 5834 5833 5835 5833 5831 5827 5825 5821 5818 5815 5810 5805 5801 5797 5793 5787 5782 5777 5773 5769 5764 5760 5757 5755 5752 5750 5748 5746 5744 5742 5740 5739 5737 5736 5736 5734 5732 5730 5729 5727 5725